DW7999 Weather Reports


time (UTC)temp
C
wind
direction
speed
KPH
gust
KPH
rain 1hr
cm
rain 24hr
cm
rain mn
cm
humidity
%
barometer
mb
20260502164100 7 17 4.8 8.0 0.00 0.18 0.00 64 1019.1
20260502164015 7 337 0.0 3.2 0.00 0.18 0.00 65 1017.8
20260502163600 6 328 1.6 17.7 0.00 0.18 0.00 64 1019.2
20260502163513 6 342 0.0 3.2 0.00 0.18 0.00 65 1017.8
20260502163105 6 30 3.2 17.7 0.00 0.18 0.00 62 1019.2
20260502163017 6 341 0.0 3.2 0.00 0.18 0.00 62 1017.8
20260502162601 7 276 3.2 14.5 0.00 0.18 0.00 62 1019.2
20260502162515 7 314 0.0 4.8 0.00 0.18 0.00 62 1017.7
20260502162101 7 13 4.8 16.1 0.00 0.18 0.00 63 1019.2
20260502162012 7 339 0.0 6.4 0.00 0.18 0.00 63 1017.8
20260502161603 7 313 8.0 16.1 0.00 0.18 0.00 64 1019.2
20260502161512 7 350 1.6 4.8 0.00 0.18 0.00 65 1017.8
20260502161104 7 339 3.2 12.9 0.00 0.18 0.00 65 1019.3
20260502161012 7 334 0.0 4.8 0.00 0.18 0.00 65 1017.8
20260502160601 7 340 3.2 17.7 0.00 0.18 0.00 66 1019.3
20260502160514 7 328 0.0 4.8 0.00 0.18 0.00 64 1017.8
20260502160104 7 14 3.2 17.7 0.00 0.18 0.00 66 1019.2
20260502152100 6 5 4.8 12.9 0.00 0.18 0.00 69 1019.0
20260502152053 6 350 0.0 3.2 0.00 0.18 0.00 70 1017.7
20260502151611 6 12 4.8 16.1 0.00 0.18 0.00 71 1019.0
20260502151603 6 355 0.0 4.8 0.00 0.18 0.00 72 1017.6
20260502151104 6 347 4.8 16.1 0.00 0.18 0.00 69 1018.9
20260502151055 6 341 0.0 4.8 0.00 0.18 0.00 70 1017.6
20260502150603 5 13 4.8 14.5 0.00 0.18 0.00 71 1018.9
20260502150549 5 348 0.0 3.2 0.00 0.18 0.00 71 1017.7
20260502150110 5 24 4.8 9.7 0.00 0.18 0.00 72 1018.9
20260502140109 5 332 4.8 19.3 0.00 0.30 0.00 73 1018.4
20260502130601 5 18 9.7 20.9 0.00 0.36 0.00 76 1018.1
20260502130528 5 349 0.0 3.2 0.00 0.36 0.00 76 1016.9
20260502123600 5 345 9.7 20.9 0.00 0.48 0.00 76 1018.2
20260502123525 5 355 0.0 4.8 0.00 0.48 0.00 76 1017.0
20260502123111 5 27 11.3 19.3 0.00 0.48 0.00 74 1018.1
20260502123024 5 346 0.0 3.2 0.00 0.48 0.00 75 1016.9
20260502122600 5 340 8.0 22.5 0.00 0.48 0.00 75 1018.2
20260502122523 5 340 0.0 4.8 0.00 0.48 0.00 75 1016.8
20260502122101 5 11 8.0 22.5 0.00 0.48 0.00 74 1018.1
20260502122025 5 347 0.0 4.8 0.00 0.48 0.00 75 1016.8
20260502121603 5 28 11.3 22.5 0.00 0.48 0.00 74 1018.2
20260502121523 5 355 0.0 4.8 0.00 0.48 0.00 74 1016.9
20260502121101 5 40 4.8 14.5 0.00 0.48 0.00 74 1018.2
20260502121026 5 340 0.0 3.2 0.00 0.48 0.00 74 1016.9
20260502120600 5 10 3.2 20.9 0.00 0.48 0.00 75 1018.2
20260502120522 5 345 0.0 6.4 0.00 0.48 0.00 76 1016.7
20260502120114 5 44 8.0 20.9 0.00 0.48 0.00 76 1018.1
20260502115600 5 5 4.8 16.1 0.00 0.71 0.00 77 1018.0
20260502115520 5 330 0.0 1.6 0.00 0.71 0.00 77 1016.7
20260502115100 5 9 6.4 16.1 0.00 0.71 0.00 77 1017.9
20260502115020 5 351 0.0 3.2 0.00 0.71 0.00 77 1016.6
20260502114604 5 17 6.4 19.3 0.00 0.71 0.00 77 1017.8
20260502114519 5 349 0.0 4.8 0.00 0.71 0.00 78 1016.7
20260502114101 5 16 8.0 19.3 0.00 0.71 0.00 77 1017.8
20260502114019 5 343 0.0 4.8 0.00 0.71 0.00 78 1016.5
20260502113558 5 28 11.3 19.3 0.00 0.71 0.00 78 1017.8
20260502113519 5 355 0.0 1.6 0.00 0.71 0.00 78 1016.6
20260502113059 5 38 8.0 17.7 0.00 0.71 0.00 77 1017.9
20260502113018 5 355 0.0 1.6 0.00 0.71 0.00 77 1016.5
20260502112557 5 24 9.7 17.7 0.00 0.71 0.00 77 1017.8
20260502112516 5 350 0.0 1.6 0.00 0.71 0.00 77 1016.6
20260502112100 5 13 6.4 17.7 0.00 0.71 0.00 77 1017.7
20260502112018 5 355 0.0 1.6 0.00 0.71 0.00 77 1016.5
20260502111602 5 360 6.4 17.7 0.00 0.71 0.00 77 1017.7
20260502111514 5 9 0.0 1.6 0.00 0.71 0.00 77 1016.4
20260502111058 5 9 4.8 17.7 0.00 0.71 0.00 76 1017.6
20260502111013 5 348 0.0 1.6 0.00 0.71 0.00 77 1016.4
20260502110558 5 22 3.2 17.7 0.00 0.71 0.00 77 1017.7
20260502110512 5 355 0.0 1.6 0.00 0.71 0.00 78 1016.4
20260502110100 5 14 11.3 19.3 0.00 0.71 0.00 78 1017.6
20260502110012 5 360 0.0 1.6 0.00 1.04 0.00 78 1016.3
20260502105600 5 15 11.3 19.3 0.00 1.04 0.00 78 1017.5
20260502105510 5 355 0.0 1.6 0.00 1.04 0.00 78 1016.3
20260502105100 5 26 11.3 19.3 0.00 1.04 0.00 78 1017.6
20260502105010 5 360 0.0 1.6 0.00 1.04 0.00 79 1016.3
20260502104601 5 13 8.0 16.1 0.00 1.04 0.00 78 1017.5
20260502104510 5 346 0.0 1.6 0.00 1.04 0.00 79 1016.4
20260502104102 5 20 9.7 17.7 0.00 1.04 0.00 78 1017.5
20260502104010 5 5 0.0 1.6 0.00 1.04 0.00 79 1016.1
20260502103600 4 24 8.0 17.7 0.00 1.04 0.00 78 1017.4
20260502103510 4 5 0.0 1.6 0.00 1.04 0.00 79 1016.2
20260502103113 4 5 9.7 20.9 0.00 1.04 0.00 79 1017.5
20260502103017 4 5 0.0 0.0 0.00 1.04 0.00 79 1016.1
20260502102558 4 16 9.7 20.9 0.00 1.04 0.00 79 1017.5
20260502102509 4 5 0.0 1.6 0.00 1.04 0.00 79 1016.1
20260502102101 4 27 11.3 20.9 0.00 1.04 0.00 79 1017.4
20260502102009 4 31 0.0 1.6 0.00 1.04 0.00 80 1016.1
20260502101601 4 17 11.3 19.3 0.00 1.04 0.00 80 1017.5
20260502101509 4 11 0.0 1.6 0.00 1.04 0.00 81 1016.2
20260502101059 4 46 8.0 19.3 0.00 1.04 0.00 80 1017.4
20260502101008 4 5 0.0 1.6 0.00 1.04 0.00 81 1016.1
20260502100558 4 38 11.3 20.9 0.00 1.04 0.00 81 1017.4
20260502100508 4 360 0.0 1.6 0.00 1.04 0.00 82 1016.1
20260502100124 4 27 9.7 20.9 0.00 1.04 0.00 82 1017.4
20260502091506 3 355 0.0 1.6 0.00 1.27 0.00 87 1015.7
20260502091100 3 24 9.7 19.3 0.00 1.27 0.00 87 1017.2
20260502091004 3 13 0.0 0.0 0.00 1.27 0.00 87 1015.7
20260502090601 3 5 11.3 24.1 0.00 1.27 0.00 87 1017.1
20260502090510 3 17 0.0 3.2 0.00 1.27 0.00 88 1015.7
20260502090107 3 40 11.3 24.1 0.00 1.27 0.00 87 1017.1
20260502080105 5 360 1.6 4.8 0.00 1.47 0.00 85 1016.4
20260502071100 5 82 0.0 14.5 0.00 1.47 0.00 84 1016.5
20260502071050 5 65 0.0 0.0 0.00 1.50 0.00 85 1015.2
20260502070602 5 47 3.2 14.5 0.00 1.47 0.00 84 1016.6
20260502070552 5 65 0.0 0.0 0.00 1.50 0.00 85 1015.3
20260502070049 5 64 0.0 0.0 0.00 1.50 0.00 85 1015.1
20260502065600 5 51 3.2 9.7 0.00 1.47 0.00 84 1016.7
20260502065549 5 74 0.0 0.0 0.00 1.50 0.00 85 1015.2
20260502065101 5 0 1.6 9.7 0.00 1.47 0.00 84 1016.6
20260502065051 5 74 0.0 0.0 0.00 1.50 0.00 84 1015.1
20260502064610 5 84 3.2 11.3 0.00 1.47 0.00 84 1016.5
20260502064557 5 74 0.0 0.0 0.00 1.50 0.00 85 1015.2
20260502064059 5 31 4.8 11.3 0.00 1.47 0.00 85 1016.8
20260502064046 5 71 0.0 0.0 0.00 1.50 0.00 85 1015.4
20260502063600 5 41 1.6 8.0 0.00 1.47 0.00 85 1016.8
20260502063546 5 71 0.0 0.0 0.00 1.50 0.00 86 1015.4
20260502063109 5 61 0.0 6.4 0.00 1.47 0.00 85 1016.7
20260502063046 6 163 0.0 0.0 0.00 1.50 0.00 86 1015.2
20260502062558 5 0 0.0 6.4 0.00 1.47 0.00 85 1016.7
20260502062544 5 163 0.0 0.0 0.00 1.50 0.00 86 1015.3
20260502062059 5 0 1.6 11.3 0.00 1.47 0.00 85 1016.7
20260502062045 5 163 0.0 0.0 0.00 1.50 0.00 86 1015.4
20260502061605 5 175 0.0 11.3 0.00 1.47 0.00 85 1016.6
20260502061545 5 163 0.0 0.0 0.00 1.50 0.00 86 1015.3
20260502061100 5 175 4.8 11.3 0.00 1.47 0.00 85 1016.7
20260502061045 6 162 0.0 0.0 0.00 1.50 0.00 86 1015.4
20260502060559 6 159 1.6 6.4 0.00 1.47 0.00 85 1016.7
20260502060544 6 141 0.0 0.0 0.00 1.50 0.00 86 1015.6
20260502060046 6 165 0.0 0.0 0.00 1.50 0.00 86 1015.4
20260502055600 6 0 0.0 8.0 0.00 1.47 0.00 85 1016.7
20260502055543 6 165 0.0 0.0 0.00 1.50 0.00 86 1015.5
20260502055059 6 0 0.0 8.0 0.00 1.47 0.00 85 1016.8
20260502055042 5 164 0.0 0.0 0.00 1.50 0.00 86 1015.5
20260502054558 5 117 3.2 8.0 0.00 1.47 0.00 85 1016.8
20260502054548 6 165 0.0 0.0 0.00 1.50 0.00 86 1015.5
20260502054100 6 0 3.2 6.4 0.00 1.47 0.00 85 1016.9
20260502054041 6 165 0.0 0.0 0.00 1.50 0.00 85 1015.6
20260502053603 6 122 3.2 6.4 0.00 1.47 0.00 85 1017.0
20260502053543 5 165 0.0 0.0 0.00 1.50 0.00 85 1015.7
20260502053101 6 0 1.6 4.8 0.00 1.47 0.00 85 1016.9
20260502053041 6 165 0.0 0.0 0.00 1.50 0.00 85 1015.6
20260502052558 6 0 1.6 6.4 0.00 1.47 0.00 85 1016.9
20260502052540 6 164 0.0 0.0 0.00 1.50 0.00 85 1015.6
20260502052059 6 0 0.0 8.0 0.00 1.47 0.00 85 1017.0
20260502052042 6 165 0.0 0.0 0.00 1.50 0.00 85 1015.7
20260502051652 6 214 3.2 8.0 0.00 1.47 0.00 85 1017.1
20260502051541 6 126 0.0 0.0 0.00 1.50 0.00 85 1015.7
20260502051058 6 166 1.6 8.0 0.00 1.47 0.00 85 1017.0
20260502051037 6 126 0.0 0.0 0.00 1.50 0.00 85 1015.9
20260502050558 6 182 3.2 9.7 0.00 1.47 0.00 85 1017.1
20260502050541 6 126 0.0 0.0 0.00 1.50 0.00 85 1015.8
20260502050037 6 111 0.0 0.0 0.00 1.50 0.00 85 1015.9
20260502045558 6 121 1.6 4.8 0.00 1.47 0.00 85 1017.1
20260502045537 6 64 0.0 0.0 0.00 1.50 0.00 85 1015.9
20260502045058 6 0 0.0 8.0 0.00 1.47 0.00 85 1017.0
20260502045037 6 63 0.0 0.0 0.00 1.50 0.00 85 1015.8
20260502044609 6 121 0.0 9.7 0.00 1.47 0.00 85 1017.1
20260502044539 6 63 0.0 0.0 0.00 1.50 0.00 85 1015.8
20260502044058 6 119 1.6 9.7 0.00 1.47 0.00 85 1017.1
20260502044034 6 63 0.0 0.0 0.00 1.50 0.00 85 1015.7
20260502043558 6 85 1.6 4.8 0.00 1.47 0.00 85 1017.0
20260502043533 6 61 0.0 0.0 0.00 1.50 0.00 85 1015.6
20260502043110 6 76 1.6 11.3 0.00 1.47 0.00 85 1017.1
20260502043033 6 63 0.0 0.0 0.00 1.50 0.00 85 1015.7
20260502042603 6 98 3.2 11.3 0.00 1.47 0.00 84 1017.2
20260502042533 6 61 0.0 0.0 0.00 1.50 0.00 85 1015.7
20260502042058 6 87 3.2 12.9 0.00 1.47 0.00 84 1017.2
20260502042033 6 150 0.0 0.0 0.00 1.50 0.00 85 1015.7
20260502041600 6 101 1.6 12.9 0.00 1.47 0.00 84 1017.2
20260502041534 6 145 0.0 0.0 0.00 1.50 0.00 85 1015.7
20260502041101 6 92 4.8 12.9 0.00 1.47 0.00 84 1017.0
20260502041029 6 44 0.0 1.6 0.00 1.50 0.00 85 1015.7
20260502040558 6 86 3.2 16.1 0.00 1.47 0.00 84 1016.9
20260502040528 6 72 0.0 1.6 0.00 1.50 0.00 85 1015.7
20260502040059 6 86 3.2 16.1 0.00 1.47 0.00 84 1016.8
20260502040038 6 68 0.0 1.6 0.00 1.50 1.50 85 1015.7
20260502035558 6 73 6.4 16.1 0.00 1.47 1.47 84 1016.9
20260502035527 6 44 0.0 1.6 0.00 1.50 1.50 84 1015.5
20260502035100 6 54 4.8 19.3 0.00 1.47 1.47 84 1016.9
20260502035027 6 65 0.0 1.6 0.00 1.50 1.50 84 1015.6
20260502034600 6 91 8.0 19.3 0.00 1.47 1.47 84 1016.9
20260502034529 6 67 0.0 3.2 0.00 1.50 1.50 85 1015.5
20260502034059 6 81 8.0 19.3 0.00 1.47 1.47 84 1016.9
20260502034029 6 43 0.0 4.8 0.00 1.50 1.50 85 1015.5
20260502033559 6 51 9.7 20.9 0.00 1.47 1.47 84 1016.8
20260502033529 6 51 0.0 4.8 0.00 1.50 1.50 85 1015.6
20260502033100 6 48 12.9 22.5 0.00 1.47 1.47 84 1016.8
20260502033026 6 54 0.0 4.8 0.00 1.50 1.50 85 1015.5
20260502032559 6 55 12.9 27.4 0.00 1.47 1.47 85 1016.8
20260502032525 6 28 0.0 11.3 0.00 1.50 1.50 85 1015.5
20260502032101 6 53 14.5 27.4 0.00 1.47 1.47 85 1016.7
20260502032025 6 51 1.6 11.3 0.00 1.50 1.50 85 1015.5
20260502031612 6 51 14.5 29.0 0.00 1.47 1.47 85 1016.6
20260502031525 6 11 0.0 9.7 0.00 1.50 1.50 85 1015.5
20260502031059 6 42 16.1 29.0 0.00 1.47 1.47 84 1016.6
20260502031025 6 38 0.0 9.7 0.00 1.50 1.50 85 1015.4
20260502030603 6 27 16.1 29.0 0.00 1.47 1.47 84 1016.7
20260502030525 6 39 0.0 9.7 0.00 1.50 1.50 84 1015.3
20260502030058 6 63 16.1 29.0 0.00 1.47 1.47 84 1016.7
20260502030027 6 44 0.0 8.0 0.00 1.50 1.50 84 1015.4
20260502025600 6 30 19.3 29.0 0.00 1.47 1.47 84 1016.6
20260502025525 6 19 0.0 8.0 0.00 1.50 1.50 85 1015.3
20260502025102 6 42 17.7 32.2 0.00 1.47 1.47 84 1016.5
20260502025022 6 355 0.0 6.4 0.00 1.50 1.50 85 1015.3
20260502024558 6 27 20.9 32.2 0.00 1.47 1.47 84 1016.6
20260502024525 6 5 3.2 8.0 0.00 1.50 1.50 84 1015.2
20260502024100 6 30 19.3 27.4 0.00 1.47 1.47 83 1016.4
20260502024023 6 350 3.2 9.7 0.00 1.50 1.50 83 1015.2
20260502023600 6 26 20.9 30.6 0.00 1.47 1.47 83 1016.4
20260502023523 7 9 3.2 9.7 0.00 1.50 1.50 83 1015.1
20260502023058 7 13 16.1 30.6 0.00 1.47 1.47 82 1016.4
20260502023022 7 360 1.6 6.4 0.00 1.50 1.50 83 1015.1
20260502022558 7 34 12.9 24.1 0.00 1.47 1.47 82 1016.5
20260502022522 7 344 0.0 3.2 0.00 1.50 1.50 82 1015.2
20260502022101 7 29 8.0 17.7 0.00 1.47 1.47 82 1016.4
20260502022022 7 346 0.0 3.2 0.00 1.50 1.50 82 1015.2
20260502021600 6 329 4.8 19.3 0.00 1.47 1.47 83 1016.4
20260502021521 6 338 0.0 1.6 0.00 1.50 1.50 84 1015.2
20260502021101 6 324 6.4 19.3 0.03 1.47 1.47 84 1016.5
20260502021022 6 336 0.0 1.6 0.03 1.50 1.50 85 1015.2
20260502020557 6 317 4.8 16.1 0.03 1.47 1.47 86 1016.5
20260502020521 6 343 0.0 1.6 0.03 1.50 1.50 86 1015.1
20260502020111 6 5 1.6 16.1 0.03 1.47 1.47 86 1016.4
20260502020022 6 294 0.0 0.0 0.03 1.50 1.50 87 1015.1
20260502015602 6 338 0.0 11.3 0.03 1.47 1.47 87 1016.3
20260502015521 6 294 0.0 1.6 0.03 1.50 1.50 88 1015.1
20260502015102 6 340 3.2 12.9 0.05 1.47 1.47 87 1016.3
20260502015020 6 286 0.0 1.6 0.05 1.50 1.50 88 1014.9
20260502014558 6 0 0.0 12.9 0.08 1.47 1.47 88 1016.4
20260502014536 5 301 0.0 0.0 0.10 1.50 1.50 88 1015.0
20260502014150 5 282 1.6 9.7 0.10 1.47 1.47 88 1016.4
20260502014020 5 301 0.0 0.0 0.10 1.50 1.50 88 1015.0
20260502013519 5 301 0.0 0.0 0.10 1.50 1.50 88 1014.9
20260502013019 5 301 0.0 0.0 0.10 1.50 1.50 88 1014.8
20260502012600 5 0 0.0 3.2 0.10 1.47 1.47 87 1016.3
20260502012520 5 301 0.0 0.0 0.10 1.50 1.50 88 1014.8
20260502012058 5 0 0.0 3.2 0.10 1.47 1.47 87 1016.2
20260502012020 5 301 0.0 0.0 0.10 1.50 1.50 87 1014.7
20260502011600 5 244 1.6 4.8 0.10 1.47 1.47 87 1016.1
20260502011519 5 301 0.0 0.0 0.10 1.50 1.50 87 1014.8
20260502011057 5 0 0.0 6.4 0.08 1.47 1.47 86 1016.1
20260502011018 5 301 0.0 0.0 0.08 1.45 1.45 86 1014.7
20260502010601 5 196 3.2 6.4 0.10 1.47 1.47 85 1016.0
20260502010519 5 301 0.0 0.0 0.10 1.45 1.45 86 1014.6
20260502010124 6 146 3.2 6.4 0.13 1.47 1.47 85 1016.0
20260502010018 6 301 0.0 0.0 0.13 1.45 1.45 85 1014.6
20260502005604 6 167 0.0 6.4 0.15 1.47 1.47 84 1016.1
20260502005518 6 301 0.0 1.6 0.15 1.45 1.45 84 1014.6
20260502005059 6 0 0.0 9.7 0.13 1.45 1.45 84 1016.3
20260502005020 6 301 0.0 1.6 0.10 1.42 1.42 84 1014.9
20260502004600 6 0 0.0 14.5 0.10 1.42 1.42 84 1016.3
20260502004522 6 300 0.0 1.6 0.08 1.40 1.40 84 1014.8
20260502004450 6 347 1.6 14.5 0.08 1.40 1.40 83 1016.3
20260502004017 6 292 0.0 17.7 0.08 1.40 1.40 84 1014.8
20260502003604 6 126 1.6 14.5 0.08 1.40 1.40 84 1016.2
20260502003519 6 301 3.2 17.7 0.08 1.40 1.40 85 1014.7
20260502003058 6 0 0.0 4.8 0.08 1.40 1.40 85 1016.2
20260502003015 6 269 0.0 0.0 0.08 1.40 1.40 85 1014.6
20260502002559 6 0 0.0 8.0 0.08 1.40 1.40 85 1015.8
20260502002514 6 267 0.0 0.0 0.08 1.40 1.40 85 1014.3
20260502002059 6 270 1.6 14.5 0.08 1.40 1.40 84 1015.8
20260502002014 6 267 0.0 0.0 0.08 1.40 1.40 84 1014.2
20260502001559 6 226 3.2 14.5 0.08 1.40 1.40 83 1015.7
20260502001524 6 267 0.0 1.6 0.08 1.40 1.40 83 1014.1
20260502001059 6 229 4.8 16.1 0.08 1.40 1.40 80 1015.6
20260502001013 6 274 0.0 3.2 0.08 1.40 1.40 80 1014.1
20260502000601 7 267 3.2 22.5 0.05 1.37 1.37 75 1015.8
20260502000520 7 275 0.0 12.9 0.05 1.37 1.37 75 1014.2
20260502000101 7 285 6.4 24.1 0.03 1.32 1.32 75 1015.8
20260502000011 7 273 0.0 3.2 0.03 1.35 1.35 75 1014.1
20260501235601 7 11 9.7 24.1 0.00 1.32 1.32 73 1015.6
20260501235511 7 248 0.0 1.6 0.00 1.32 1.32 73 1014.0
20260501235059 7 236 11.3 24.1 0.00 1.32 1.32 72 1015.4
20260501235010 7 250 0.0 1.6 0.00 1.32 1.32 72 1013.8
20260501234601 8 255 8.0 22.5 0.00 1.32 1.32 72 1015.4
20260501234510 8 261 0.0 1.6 0.00 1.32 1.32 73 1013.9
20260501234101 8 248 11.3 22.5 0.00 1.32 1.32 74 1015.5
20260501234010 8 214 0.0 1.6 0.00 1.32 1.32 75 1013.9
20260501233602 8 243 6.4 16.1 0.00 1.32 1.32 75 1015.4
20260501233511 8 242 0.0 0.0 0.00 1.32 1.32 76 1013.9
20260501233106 8 238 6.4 16.1 0.00 1.32 1.32 75 1015.5
20260501233010 8 242 0.0 0.0 0.00 1.32 1.32 76 1014.0
20260501232559 8 227 3.2 11.3 0.00 1.32 1.32 77 1015.4
20260501232514 8 244 0.0 0.0 0.00 1.32 1.32 78 1013.9
20260501232103 8 216 4.8 12.9 0.00 1.32 1.32 76 1015.5
20260501232010 8 242 0.0 0.0 0.00 1.32 1.32 77 1013.9
20260501231612 8 222 6.4 14.5 0.00 1.32 1.32 76 1015.5
20260501231509 8 242 0.0 0.0 0.00 1.32 1.32 77 1013.8
20260501231059 8 217 4.8 14.5 0.00 1.32 1.32 76 1015.3
20260501231009 8 253 0.0 1.6 0.00 1.32 1.32 77 1013.8
20260501230559 8 213 6.4 12.9 0.00 1.32 1.32 76 1015.4
20260501230510 8 254 0.0 0.0 0.00 1.32 1.32 77 1013.7
20260501230120 8 214 4.8 14.5 0.00 1.32 1.32 77 1015.4
20260501230012 8 339 0.0 0.0 0.00 1.32 1.32 77 1013.9
20260501225559 8 202 4.8 14.5 0.00 1.32 1.32 76 1015.5
20260501225509 8 339 0.0 0.0 0.00 1.32 1.32 77 1013.9
20260501225059 8 228 4.8 9.7 0.00 1.32 1.32 75 1015.6
20260501225009 8 342 0.0 0.0 0.00 1.32 1.32 76 1013.9
20260501224603 8 192 3.2 8.0 0.00 1.32 1.32 75 1015.5
20260501224508 8 342 0.0 0.0 0.00 1.32 1.32 75 1013.9
20260501224058 8 205 1.6 8.0 0.00 1.32 1.32 73 1015.5
20260501224008 8 342 0.0 0.0 0.00 1.32 1.32 74 1013.8
20260501223600 8 0 1.6 6.4 0.00 1.32 1.32 71 1015.4
20260501223508 8 342 0.0 0.0 0.00 1.32 1.32 71 1013.9
20260501223103 8 242 3.2 6.4 0.00 1.32 1.32 71 1015.4
20260501223014 8 342 0.0 0.0 0.00 1.32 1.32 72 1013.9
20260501222600 8 241 3.2 8.0 0.00 1.32 1.32 72 1015.3
20260501222509 8 342 0.0 0.0 0.00 1.32 1.32 73 1013.9
20260501222104 8 216 1.6 8.0 0.00 1.32 1.32 73 1015.4
20260501222007 8 342 0.0 0.0 0.00 1.32 1.32 73 1013.9
20260501221600 8 0 3.2 8.0 0.00 1.32 1.32 73 1015.4
20260501221506 8 342 0.0 0.0 0.00 1.32 1.32 74 1013.9
20260501221101 8 238 1.6 6.4 0.00 1.32 1.32 71 1015.4
20260501221007 8 342 0.0 0.0 0.00 1.32 1.32 72 1013.9
20260501220559 8 232 1.6 9.7 0.00 1.32 1.32 73 1015.4
20260501220507 8 342 0.0 0.0 0.00 1.32 1.32 73 1013.8
20260501220059 8 243 1.6 9.7 0.00 1.32 1.32 72 1015.4
20260501220007 8 342 0.0 0.0 0.00 1.32 1.32 72 1013.9
20260501215602 8 267 3.2 11.3 0.00 1.32 1.32 72 1015.3
20260501215506 8 345 0.0 0.0 0.00 1.32 1.32 73 1013.8
20260501215058 8 209 4.8 11.3 0.00 1.32 1.32 72 1015.3
20260501215005 8 345 0.0 0.0 0.00 1.32 1.32 73 1013.8
20260501214612 8 200 3.2 9.7 0.00 1.32 1.32 73 1015.3
20260501214506 8 346 0.0 0.0 0.00 1.32 1.32 73 1013.9
20260501214100 8 237 4.8 11.3 0.00 1.32 1.32 73 1015.4
20260501214005 8 346 0.0 0.0 0.00 1.32 1.32 73 1013.9
20260501213600 8 227 4.8 11.3 0.00 1.32 1.32 72 1015.3
20260501213507 8 346 0.0 0.0 0.00 1.32 1.32 73 1013.7
20260501213103 8 208 1.6 6.4 0.00 1.32 1.32 70 1015.3
20260501213005 9 346 0.0 0.0 0.00 1.32 1.32 70 1013.6
20260501212600 9 255 1.6 6.4 0.00 1.32 1.32 70 1015.3
20260501212503 9 350 0.0 0.0 0.00 1.32 1.32 71 1013.6
20260501212102 8 0 1.6 6.4 0.00 1.32 1.32 69 1015.2
20260501212003 8 350 0.0 0.0 0.00 1.32 1.32 68 1013.6
20260501211601 8 300 1.6 4.8 0.00 1.32 1.32 71 1015.2
20260501211503 8 349 0.0 0.0 0.00 1.32 1.32 71 1013.5
20260501211059 8 279 1.6 4.8 0.00 1.32 1.32 69 1015.2
20260501211006 8 349 0.0 0.0 0.00 1.32 1.32 71 1013.6
20260501210559 8 259 1.6 6.4 0.00 1.32 1.32 73 1015.1
20260501210504 8 355 0.0 0.0 0.00 1.32 1.32 75 1013.5
20260501210058 8 0 0.0 6.4 0.00 1.32 1.32 73 1015.1
20260501210002 8 355 0.0 0.0 0.00 1.32 1.32 72 1013.4
20260501205558 8 24 3.2 8.0 0.00 1.32 1.32 73 1015.1
20260501205503 8 355 0.0 0.0 0.00 1.32 1.32 74 1013.4
20260501205110 8 0 1.6 8.0 0.00 1.32 1.32 72 1015.1
20260501205003 8 355 0.0 0.0 0.00 1.32 1.32 72 1013.5
20260501204559 8 17 4.8 8.0 0.00 1.32 1.32 73 1015.1
20260501204503 8 355 0.0 0.0 0.00 1.32 1.32 73 1013.5
20260501204059 7 39 0.0 12.9 0.00 1.32 1.32 73 1015.1
20260501204004 7 355 0.0 0.0 0.00 1.32 1.32 73 1013.4
20260501203559 7 20 1.6 12.9 0.00 1.32 1.32 72 1015.1
20260501203502 7 355 0.0 0.0 0.00 1.32 1.32 74 1013.5
20260501203101 7 18 3.2 8.0 0.00 1.32 1.32 73 1015.1
20260501203001 7 355 0.0 0.0 0.00 1.32 1.32 73 1013.4
20260501202600 7 22 1.6 6.4 0.00 1.32 1.32 72 1015.1
20260501202501 8 355 0.0 0.0 0.00 1.32 1.32 73 1013.5
20260501202100 8 0 0.0 4.8 0.00 1.32 1.32 73 1015.2
20260501202001 8 355 0.0 0.0 0.00 1.32 1.32 73 1013.5
20260501201559 8 0 0.0 6.4 0.00 1.32 1.32 73 1015.1
20260501201503 8 355 0.0 0.0 0.00 1.32 1.32 73 1013.6
20260501201104 8 281 1.6 9.7 0.00 1.32 1.32 72 1015.0
20260501201100 8 19 0.0 0.0 0.00 1.32 1.32 72 1013.4
20260501200601 8 19 0.0 0.0 0.00 1.32 1.32 72 1013.4
20260501200100 8 341 4.8 8.0 0.00 1.32 1.32 72 1014.9
20260501195600 8 19 0.0 0.0 0.00 1.32 1.32 74 1013.3
20260501195559 8 32 3.2 11.3 0.00 1.32 1.32 74 1014.8
20260501195102 7 9 0.0 0.0 0.00 1.32 1.32 73 1013.3
20260501194604 7 26 3.2 11.3 0.00 1.32 1.32 73 1014.9
20260501194559 7 55 0.0 0.0 0.00 1.32 1.32 74 1013.5
20260501194059 7 344 4.8 11.3 0.00 1.32 1.32 74 1015.1
20260501193559 7 59 0.0 0.0 0.00 1.32 1.32 75 1013.4
20260501193058 7 60 0.0 0.0 0.00 1.32 1.32 75 1013.4
20260501192559 7 49 3.2 9.7 0.00 1.32 1.32 76 1015.1
20260501192100 7 352 3.2 8.0 0.00 1.32 1.32 77 1015.1
20260501191606 7 352 3.2 11.3 0.00 1.32 1.32 77 1015.1
20260501191558 7 349 0.0 0.0 0.00 1.32 1.32 78 1013.6
20260501191100 7 28 6.4 11.3 0.00 1.32 1.32 79 1015.2
20260501191058 7 24 0.0 0.0 0.00 1.32 1.32 80 1013.5
20260501190603 7 26 4.8 16.1 0.00 1.32 1.32 80 1015.3
20260501190558 7 24 0.0 0.0 0.00 1.32 1.32 80 1013.6
20260501190126 7 17 8.0 16.1 0.00 1.32 1.32 80 1015.1
20260501185559 6 38 4.8 16.1 0.00 1.32 1.32 81 1015.1
20260501185556 6 348 0.0 0.0 0.00 1.32 1.32 81 1013.4
20260501185100 6 349 0.0 1.6 0.00 1.32 1.32 81 1013.3
20260501185059 6 5 8.0 16.1 0.00 1.32 1.32 81 1015.1
20260501184559 6 27 3.2 17.7 0.00 1.32 1.32 82 1015.0
20260501184556 6 351 0.0 1.6 0.00 1.32 1.32 83 1013.3
20260501184101 6 15 6.4 20.9 0.00 1.32 1.32 82 1015.0
20260501184056 6 342 0.0 1.6 0.00 1.32 1.32 82 1013.3
20260501183602 6 5 12.9 22.5 0.00 1.32 1.32 81 1014.9
20260501183556 6 349 0.0 1.6 0.00 1.32 1.32 82 1013.3
20260501183059 6 22 11.3 25.7 0.00 1.32 1.32 81 1014.8
20260501183056 6 355 0.0 3.2 0.00 1.32 1.32 81 1013.3
20260501182558 6 41 11.3 25.7 0.00 1.32 1.32 82 1014.8
20260501182555 6 9 0.0 6.4 0.00 1.32 1.32 82 1013.1
20260501182058 6 342 16.1 24.1 0.00 1.32 1.32 83 1014.6
20260501181602 6 21 14.5 24.1 0.00 1.32 1.32 82 1014.6
20260501181555 6 355 0.0 3.2 0.00 1.32 1.32 82 1012.9
20260501181058 7 352 8.0 20.9 0.00 1.32 1.32 80 1014.6
20260501181055 7 339 0.0 12.9 0.00 1.32 1.32 81 1012.9
20260501180558 7 24 9.7 19.3 0.00 1.32 1.32 78 1014.6
20260501180555 7 344 1.6 12.9 0.00 1.32 1.32 79 1012.9
20260501180104 7 350 6.4 17.7 0.00 1.32 1.32 79 1014.5
20260501180055 7 339 0.0 1.6 0.00 1.32 1.32 79 1012.7
20260501175559 7 5 8.0 17.7 0.00 1.32 1.32 80 1014.4
20260501175554 7 346 0.0 1.6 0.00 1.32 1.32 80 1012.8
20260501175059 7 43 3.2 19.3 0.00 1.32 1.32 81 1014.4
20260501175053 7 25 0.0 1.6 0.00 1.32 1.32 81 1012.8
20260501174612 7 15 6.4 20.9 0.00 1.32 1.32 80 1014.3
20260501174553 7 343 0.0 1.6 0.00 1.32 1.32 81 1012.6
20260501174100 7 19 11.3 22.5 0.00 1.32 1.32 79 1014.2
20260501174053 7 12 0.0 1.6 0.00 1.32 1.32 80 1012.7
20260501173559 7 12 11.3 22.5 0.00 1.32 1.32 78 1014.3
20260501173555 7 360 0.0 3.2 0.00 1.32 1.32 79 1012.6
20260501173108 7 26 12.9 22.5 0.00 1.32 1.32 78 1014.2
20260501173102 7 346 0.0 3.2 0.00 1.32 1.32 78 1012.7
20260501172600 7 9 11.3 19.3 0.00 1.32 1.32 79 1014.2
20260501172553 7 360 0.0 1.6 0.00 1.32 1.32 80 1012.6
20260501172103 7 5 12.9 19.3 0.00 1.32 1.32 78 1014.3
20260501172056 7 24 0.0 1.6 0.00 1.32 1.32 79 1012.6
20260501171602 7 29 8.0 19.3 0.00 1.32 1.32 79 1014.3
20260501171552 7 342 0.0 1.6 0.00 1.32 1.32 80 1012.7